DW5508 Weather Reports


Display with metric or nautical units.
time (UTC)temp
F
wind
direction
speed
MPH
gust
MPH
rain 1hr
in
rain 24hr
in
rain mn
in
humidity
%
barometer
mb
20260502151612 59 113 0.0 3.0 0.00 0.00 0.00 35 1021.1
20260502150105 58 196 0.0 1.0 0.00 0.00 0.00 39 1021.1
20260502123036 42 221 0.0 1.0 0.00 0.00 0.00 67 1020.7
20260502121529 42 222 0.0 1.0 0.00 0.00 0.00 69 1020.6
20260502114525 42 225 0.0 1.0 0.00 0.00 0.00 67 1020.5
20260502113024 42 219 0.0 0.0 0.00 0.00 0.00 65 1020.5
20260502111522 41 219 0.0 0.0 0.00 0.00 0.00 62 1020.5
20260502110025 42 201 0.0 0.0 0.00 0.00 0.00 61 1020.5
20260502104520 41 201 0.0 0.0 0.00 0.00 0.00 61 1020.5
20260502103020 42 201 0.0 0.0 0.00 0.00 0.00 59 1020.4
20260502101521 42 201 0.0 0.0 0.00 0.00 0.00 58 1020.4
20260502091511 43 201 0.0 0.0 0.00 0.00 0.00 55 1020.1
20260502070056 45 186 0.0 0.0 0.00 0.00 0.00 49 1020.5
20260502064553 46 230 0.0 1.0 0.00 0.00 0.00 49 1020.4
20260502063052 44 226 0.0 0.0 0.00 0.00 0.00 52 1020.3
20260502061549 45 226 0.0 0.0 0.00 0.00 0.00 50 1020.3
20260502060052 46 228 0.0 1.0 0.00 0.00 0.00 51 1020.3
20260502054545 45 254 0.0 0.0 0.00 0.00 0.00 48 1020.2
20260502053103 45 255 0.0 0.0 0.00 0.00 0.00 50 1020.1
20260502051545 46 255 0.0 0.0 0.00 0.00 0.00 49 1020.1
20260502050043 47 255 0.0 0.0 0.00 0.00 0.00 46 1020.1
20260502044542 48 255 0.0 0.0 0.00 0.00 0.00 43 1020.2
20260502043143 50 255 0.0 1.0 0.00 0.00 0.00 41 1020.1
20260502041543 50 255 0.0 0.0 0.00 0.00 0.00 39 1020.0
20260502040044 52 255 0.0 0.0 0.00 0.00 0.00 37 1019.9
20260502034540 53 255 0.0 0.0 0.00 0.00 0.00 36 1019.7
20260502033041 54 255 0.0 1.0 0.00 0.00 0.00 35 1019.5
20260502031540 54 255 0.0 1.0 0.00 0.00 0.00 35 1019.3
20260502030052 56 255 0.0 1.0 0.00 0.00 0.00 33 1019.1
20260502024543 57 283 0.0 3.0 0.00 0.00 0.00 31 1019.0
20260502023054 58 304 0.0 4.0 0.00 0.00 0.00 28 1018.8
20260502021541 59 293 1.0 3.0 0.00 0.00 0.00 27 1018.7
20260502020036 60 293 3.0 7.0 0.00 0.00 0.00 26 1018.7
20260502014539 62 309 3.0 7.0 0.00 0.00 0.00 25 1018.6
20260502013038 62 328 3.0 8.0 0.00 0.00 0.00 26 1018.6
20260502011536 62 306 4.0 8.0 0.00 0.00 0.00 26 1018.5
20260502010032 63 304 4.0 10.0 0.00 0.00 0.00 26 1018.6
20260502004531 63 307 4.0 12.0 0.00 0.00 0.00 26 1018.5
20260502003032 64 299 4.0 9.0 0.00 0.00 0.00 27 1018.5
20260502001531 64 281 3.0 10.0 0.00 0.00 0.00 26 1018.6
20260502000030 65 307 4.0 7.0 0.00 0.00 0.00 26 1018.6
20260501234528 65 305 3.0 11.0 0.00 0.00 0.00 25 1018.7
20260501233028 65 274 3.0 13.0 0.00 0.00 0.00 26 1018.7
20260501231527 65 284 4.0 10.0 0.00 0.00 0.00 25 1018.6
20260501230026 65 16 3.0 8.0 0.00 0.00 0.00 27 1018.8
20260501224524 64 313 3.0 15.0 0.00 0.00 0.00 26 1018.9
20260501223109 65 354 3.0 10.0 0.00 0.00 0.00 26 1019.0
20260501221525 65 333 3.0 9.0 0.00 0.00 0.00 25 1019.1
20260501220024 65 14 2.0 9.0 0.00 0.00 0.00 22 1019.3
20260501214522 65 56 4.0 10.0 0.00 0.00 0.00 25 1019.4
20260501213020 65 26 3.0 10.0 0.00 0.00 0.00 25 1019.4
20260501211519 65 334 3.0 8.0 0.00 0.00 0.00 24 1019.5
20260501210020 65 317 3.0 11.0 0.00 0.00 0.00 27 1019.6
20260501204518 64 347 4.0 9.0 0.00 0.00 0.00 27 1019.8
20260501203035 65 309 4.0 9.0 0.00 0.00 0.00 27 1019.7
20260501201515 64 309 3.0 9.0 0.00 0.00 0.00 26 1019.7
20260501200015 65 276 1.0 7.0 0.00 0.00 0.00 25 1019.7
20260501194518 63 21 2.0 11.0 0.00 0.00 0.00 29 1019.9
20260501193012 62 30 1.0 7.0 0.00 0.00 0.00 28 1019.9
20260501191511 63 322 1.0 6.0 0.00 0.00 0.00 28 1020.1
20260501190010 63 27 1.0 6.0 0.00 0.00 0.00 27 1020.3
20260501184527 63 300 3.0 8.0 0.00 0.00 0.00 27 1020.4
20260501183006 62 26 1.0 8.0 0.00 0.00 0.00 28 1020.5
20260501181505 62 6 2.0 7.0 0.00 0.00 0.00 26 1020.5
20260501180012 61 266 1.0 8.0 0.00 0.00 0.00 28 1020.6
20260501174502 61 41 1.0 7.0 0.00 0.00 0.00 31 1020.7
20260501173001 61 308 1.0 7.0 0.00 0.00 0.00 29 1020.8
20260501171559 60 1 1.0 6.0 0.00 0.00 0.00 27 1020.8
20260501171511 60 313 2.0 6.0 0.00 0.00 0.00 25 1020.8
20260501170056 60 338 1.0 3.0 0.00 0.00 0.00 30 1020.9
20260501164603 58 40 1.0 6.0 0.00 0.00 0.00 32 1020.8
20260501163051 57 70 1.0 5.0 0.00 0.00 0.00 32 1020.9
20260501161559 57 340 0.0 3.0 0.00 0.00 0.00 36 1020.9